Location: Observatoire
(46.1952°N, 5.3391°E)
Time: 05:54:59
(UTC+01:00)

Explorer 7 - Pass Details

Date: 24 February 2026
Orbit: 430 x 542 km, 50.2° (Epoch: 5 March)

Event Time Altitude Azimuth Distance (km) Brightness Sun altitude
Rises 13:15:38 0° 228° (SW) 2,387 10.7 34.2°
Reaches altitude 10° 13:17:46 10° 222° (SW) 1,529 10.0 34.2°
Maximum altitude 13:21:04 47° 148° (SSE) 591 8.1 34.1°
Drops below altitude 10° 13:24:28 10° 74° (ENE) 1,570 9.0 34.0°
Sets 13:26:41 0° 68° (ENE) 2,462 9.9 33.9°
